CW8097 Weather Reports


Display with metric or nautical units.
time (UTC)temp
F
wind
direction
speed
MPH
gust
MPH
rain 1hr
in
rain 24hr
in
rain mn
in
humidity
%
barometer
mb
20260504130703 57 189 6.0 8.0 0.00 0.00 0.00 61 1003.0
20260504130202 57 188 5.0 6.0 0.00 0.00 0.00 62 1003.0
20260504120203 52 162 0.0 0.0 0.00 0.00 0.00 67 1003.3
20260504110703 49 213 2.0 3.0 0.00 0.00 0.00 67 1003.6
20260504110202 50 209 3.0 6.0 0.00 0.00 0.00 66 1003.5
20260504081202 51 190 1.0 3.0 0.00 0.00 0.00 58 1005.2
20260504070203 53 195 3.0 6.0 0.00 0.00 0.00 51 1006.0
20260504060202 52 214 0.0 0.0 0.00 0.00 0.00 48 1006.6
20260504045203 56 214 0.0 0.0 0.00 0.00 0.00 43 1007.3
20260504043703 58 214 0.0 0.0 0.00 0.00 0.00 39 1007.4
20260504043203 58 214 0.0 0.0 0.00 0.00 0.00 39 1007.5
20260504041703 59 214 0.0 0.0 0.00 0.00 0.00 38 1007.6
20260504040702 59 214 0.0 0.0 0.00 0.00 0.00 37 1007.8
20260504040202 60 214 0.0 0.0 0.00 0.00 0.00 37 1007.9
20260504033703 59 214 1.0 1.0 0.00 0.00 0.00 37 1008.1
20260504033202 59 214 0.0 2.0 0.00 0.00 0.00 38 1008.2
20260504032702 59 214 0.0 1.0 0.00 0.00 0.00 37 1008.2
20260504031703 59 214 1.0 1.0 0.00 0.00 0.00 38 1008.4
20260504031202 59 214 1.0 1.0 0.00 0.00 0.00 38 1008.4
20260504030202 60 214 1.0 1.0 0.00 0.00 0.00 36 1008.3
20260504025702 61 214 0.0 1.0 0.00 0.00 0.00 36 1008.3
20260504024203 60 214 1.0 2.0 0.00 0.00 0.00 36 1008.2
20260504023702 61 214 1.0 2.0 0.00 0.00 0.00 36 1008.1
20260504022703 61 214 1.0 3.0 0.00 0.00 0.00 35 1008.0
20260504020703 63 221 2.0 3.0 0.00 0.00 0.00 35 1008.0
20260504014203 63 236 1.0 1.0 0.00 0.00 0.00 33 1007.9
20260504011703 64 236 1.0 2.0 0.00 0.00 0.00 34 1007.8
20260504010702 65 233 2.0 3.0 0.00 0.00 0.00 34 1007.9
20260504010203 65 248 2.0 3.0 0.00 0.00 0.00 35 1007.9
20260504005703 65 258 2.0 3.0 0.00 0.00 0.00 35 1007.9
20260504004702 67 252 2.0 5.0 0.00 0.00 0.00 35 1008.0
20260504003702 68 248 3.0 7.0 0.00 0.00 0.00 33 1007.9
20260504003203 68 258 5.0 8.0 0.00 0.00 0.00 32 1008.0
20260504002702 68 252 3.0 7.0 0.00 0.00 0.00 33 1008.0
20260504001202 71 268 6.0 8.0 0.00 0.00 0.00 27 1007.9
20260503234203 72 268 8.0 13.0 0.00 0.00 0.00 27 1007.8
20260503233703 72 284 6.0 10.0 0.00 0.00 0.00 25 1007.8
20260503233203 72 279 7.0 14.0 0.00 0.00 0.00 25 1007.8
20260503232203 73 284 10.0 16.0 0.00 0.00 0.00 24 1007.8
20260503230202 73 271 11.0 18.0 0.00 0.00 0.00 26 1007.9
20260503224203 73 256 13.0 17.0 0.00 0.00 0.00 27 1007.8
20260503223203 73 265 11.0 18.0 0.00 0.00 0.00 25 1007.8
20260503222703 73 271 10.0 20.0 0.00 0.00 0.00 27 1007.8
20260503222203 73 264 10.0 17.0 0.00 0.00 0.00 27 1007.7
20260503220703 73 268 12.0 18.0 0.00 0.00 0.00 27 1007.7
20260503214703 73 268 12.0 20.0 0.00 0.00 0.00 27 1007.7
20260503214203 73 256 13.0 18.0 0.00 0.00 0.00 29 1007.8
20260503212703 73 253 11.0 16.0 0.00 0.00 0.00 27 1007.7
20260503212203 73 284 12.0 20.0 0.00 0.00 0.00 30 1007.8
20260503211703 73 270 12.0 20.0 0.00 0.00 0.00 31 1007.9
20260503210703 74 317 7.0 16.0 0.00 0.00 0.00 27 1008.0
20260503205703 73 267 10.0 17.0 0.00 0.00 0.00 32 1008.1
20260503205202 72 287 14.0 21.0 0.00 0.00 0.00 30 1008.1
20260503203203 73 269 15.0 20.0 0.00 0.00 0.00 29 1008.2
20260503202703 73 298 7.0 15.0 0.00 0.00 0.00 30 1008.2
20260503202203 73 281 13.0 20.0 0.00 0.00 0.00 29 1008.3
20260503194203 73 276 11.0 18.0 0.00 0.00 0.00 32 1008.5
20260503193703 73 291 9.0 18.0 0.00 0.00 0.00 33 1008.5
20260503193203 72 263 12.0 17.0 0.00 0.00 0.00 35 1008.5
20260503192203 72 309 8.0 15.0 0.00 0.00 0.00 31 1008.6
20260503191703 72 295 12.0 21.0 0.00 0.00 0.00 32 1008.7
20260503191203 72 273 14.0 20.0 0.00 0.00 0.00 33 1008.7
20260503190703 72 280 13.0 18.0 0.00 0.00 0.00 32 1008.7
20260503185703 73 289 11.0 20.0 0.00 0.00 0.00 34 1008.7
20260503185202 72 315 11.0 16.0 0.00 0.00 0.00 32 1008.6
20260503184203 72 274 10.0 16.0 0.00 0.00 0.00 34 1008.6
20260503183203 72 270 10.0 15.0 0.00 0.00 0.00 39 1008.7
20260503180203 71 274 9.0 17.0 0.00 0.00 0.00 38 1009.0
20260503175703 71 294 11.0 20.0 0.00 0.00 0.00 40 1009.0
20260503175203 70 260 12.0 20.0 0.00 0.00 0.00 43 1009.1
20260503174203 70 248 12.0 18.0 0.00 0.00 0.00 44 1009.1
20260503172703 69 264 12.0 18.0 0.00 0.00 0.00 45 1009.3
20260503172203 68 271 13.0 20.0 0.00 0.00 0.00 45 1009.2
20260503171202 67 257 10.0 17.0 0.00 0.00 0.00 47 1009.2
20260503160203 63 222 12.0 21.0 0.00 0.00 0.00 51 1009.6
20260503140203 55 213 13.0 22.0 0.00 0.00 0.00 56 1010.7